Location: Harwich
(41.7160°N, 69.9939°W)
Time: 06:15:48
(UTC+01:00)

Explorer 7 - All Passes

Search period start: 30 January 2023 00:00
Search period end: 09 February 2023 00:00
Orbit: 480 x 660 km, 50.3° (Epoch: 29 January)

Date Brightness Start Highest point End Pass type
(mag) Time Alt. Az. Time Alt. Az. Time Alt. Az.
30 Jan - 01:24:04 10° WNW 01:28:45 61° SW 01:33:29 10° SE visible
30 Jan - 03:06:46 10° WSW 03:08:22 12° SW 03:09:59 10° SSW visible
30 Jan - 17:05:37 10° SE 17:06:53 11° SE 17:08:11 10° ESE daylight
30 Jan - 18:42:15 10° SW 18:46:24 70° SE 18:50:50 10° ENE daylight
30 Jan - 20:22:59 10° W 20:27:00 36° NNW 20:31:15 10° NE daylight
30 Jan - 22:04:18 10° NW 22:08:14 28° N 22:12:17 10° ENE daylight
30 Jan - 23:44:46 10° NW 23:49:19 50° NNE 23:53:59 10° E visible
31 Jan - 01:25:11 10° WNW 01:29:40 42° SW 01:34:11 10° SSE visible
31 Jan - 17:04:51 10° S 17:07:37 18° SE 17:10:30 10° E daylight
31 Jan - 18:43:13 10° WSW 18:47:23 83° NW 18:51:52 10° ENE daylight
31 Jan - 20:24:17 10° WNW 20:28:11 31° NNW 20:32:17 10° NE daylight
31 Jan - 22:05:26 10° NW 22:09:26 29° N 22:13:35 10° ENE daylight
31 Jan - 23:45:44 10° NW 23:50:23 66° NNE 23:55:09 10° ESE visible
01 Feb - 01:26:26 10° WNW 01:30:31 29° SW 01:34:38 10° SSE visible
01 Feb - 17:04:57 10° SSW 17:08:23 27° SE 17:12:01 10° ENE daylight
01 Feb - 18:44:17 10° WSW 18:48:25 60° NNW 18:52:50 10° NE daylight
01 Feb - 20:25:35 10° WNW 20:29:23 28° N 20:33:22 10° NE daylight
01 Feb - 22:06:30 10° NW 22:10:37 33° NNE 22:14:53 10° ENE daylight
01 Feb - 23:46:43 10° WNW 23:51:23 88° NNE 23:56:12 10° ESE visible
02 Feb - 01:27:54 10° W 01:31:18 20° SW 01:34:46 10° S visible
02 Feb - 17:05:25 10° SSW 17:09:13 40° SE 17:13:15 10° ENE daylight
02 Feb - 18:45:27 10° W 18:49:29 45° NNW 18:53:47 10° NE daylight
02 Feb - 20:26:50 10° WNW 20:30:34 27° N 20:34:30 10° ENE daylight
02 Feb - 22:07:30 10° NW 22:11:45 38° NNE 22:16:10 10° E daylight
02 Feb - 23:47:43 10° WNW 23:52:20 67° SW 23:57:05 10° SE visible
03 Feb - 01:29:53 10° W 01:32:03 13° SW 01:34:13 10° SSW visible
03 Feb - 17:06:07 10° SW 17:10:05 62° SE 17:14:20 10° ENE daylight
03 Feb - 18:46:42 10° W 18:50:36 36° NNW 18:54:44 10° NE daylight
03 Feb - 20:28:00 10° NW 20:31:46 27° N 20:35:41 10° ENE daylight
03 Feb - 22:08:28 10° NW 22:12:51 47° NNE 22:17:24 10° E daylight
03 Feb - 23:48:47 10° WNW 23:53:14 47° SW 23:57:48 10° SSE visible
04 Feb - 15:29:03 10° SSE 15:31:20 15° SE 15:33:42 10° E daylight
04 Feb - 17:06:59 10° WSW 17:11:01 90° SSW 17:15:20 10° ENE daylight
04 Feb - 18:47:57 10° WNW 18:51:43 31° NNW 18:55:43 10° NE daylight
04 Feb - 20:29:08 10° NW 20:32:56 28° N 20:36:55 10° ENE daylight
04 Feb - 22:09:24 10° NW 22:13:53 60° NNE 22:18:33 10° ESE daylight
04 Feb - 23:49:57 10° WNW 23:54:04 32° SW 23:58:17 10° SSE visible
05 Feb - 15:28:55 10° S 15:32:04 23° SE 15:35:20 10° E daylight
05 Feb - 17:07:59 10° WSW 17:11:59 64° NNW 17:16:16 10° NE daylight
05 Feb - 18:49:13 10° WNW 18:52:52 28° N 18:56:43 10° NE daylight
05 Feb - 20:30:09 10° NW 20:34:04 31° NNE 20:38:11 10° ENE daylight
05 Feb - 22:10:19 10° WNW 22:14:52 81° NNE 22:19:36 10° ESE daylight
05 Feb - 23:51:18 10° W 23:54:51 22° SW 23:58:28 10° S visible
06 Feb - 15:29:15 10° SSW 15:32:50 35° SE 15:36:37 10° ENE daylight
06 Feb - 17:09:05 10° W 17:13:00 48° NNW 17:17:11 10° NE daylight
06 Feb - 18:50:26 10° WNW 18:54:01 26° N 18:57:48 10° NE daylight
06 Feb - 20:31:07 10° NW 20:35:11 35° NNE 20:39:27 10° E daylight
06 Feb - 22:11:16 10° WNW 22:15:47 74° SW 22:20:30 10° SE daylight
06 Feb - 23:53:03 10° W 23:55:34 14° SW 23:58:07 10° SSW visible
07 Feb - 15:29:51 10° SW 15:33:39 54° SE 15:37:41 10° ENE daylight
07 Feb - 17:10:16 10° W 17:14:03 37° NNW 17:18:04 10° NE daylight
07 Feb - 18:51:36 10° NW 18:55:10 26° N 18:58:56 10° ENE daylight
07 Feb - 20:32:03 10° NW 20:36:15 43° NNE 20:40:39 10° E daylight
07 Feb - 22:12:16 10° WNW 22:16:40 51° SW 22:21:14 10° SE daylight
08 Feb - 13:53:16 10° SSE 13:54:55 12° SE 13:56:37 10° ESE daylight
08 Feb - 15:30:38 10° SW 15:34:31 81° SE 15:38:40 10° ENE daylight
08 Feb - 17:11:29 10° WNW 17:15:08 31° NNW 17:19:00 10° NE daylight
08 Feb - 18:52:41 10° NW 18:56:19 27° N 19:00:07 10° ENE daylight
08 Feb - 20:32:56 10° NW 20:37:15 55° NNE 20:41:48 10° ESE daylight
08 Feb - 22:13:22 10° WNW 22:17:28 35° SW 22:21:44 10° SSE daylight
